Yatton Keynell, United Kingdom

3:22 AM GMT on March 26, 2019 (GMT +0000)
Yatton Keynell

Weather History for 03740 - July, 2004

Change the Weather History Date:

Wednesday, July 28, 2004

  Actual Average Record
Temperature  
Mean Temperature 66 °F -  
Max Temperature 72 °F 68 °F - ()
Min Temperature 59 °F 53 °F - ()
Growing Degree Days 16 (Base 50)    
Moisture  
Dew Point 56 °F    
Average Humidity 69    
Maximum Humidity 88    
Minimum Humidity 44    
Precipitation  
Precipitation 0.00 in 0.08 in - ()
Sea Level Pressure  
Sea Level Pressure 30.08 in    
Wind  
Wind Speed 3 mph ()    
Max Wind Speed 8 mph    
Max Gust Speed -    
Visibility 7.5 miles    
Events      
T = Trace of Precipitation, MM = Missing Value Source: Averaged Metar Reports

Daily Weather History Graph

Daily Weather History Graph

Search for Another Location

Airport or City:

Astronomy

Jul. 28, 2004 Rise Set
Actual Time 5:26 AM BST 9:01 PM BST
Civil Twilight 4:44 AM BST 9:43 PM BST
Nautical Twilight 3:47 AM BST 10:39 PM BST
Astronomical Twilight 2:22 AM BST 12:01 AM BST
Moon 6:53 PM BST (7/28) 1:00 AM BST (7/28)
Length of Visible Light 16h 58m
Length of Day
15h 35m
Waxing Gibbous, 85% of the Moon is Illuminated
Jul 28
Waxing Gibbous
Jul 31
Full
Aug 7
Last Quarter
Aug 16
New
Aug 23
First Quarter

Hourly Weather History & Observations

Time (BST) Temp. Dew Point Humidity Pressure Visibility Wind Dir Wind Speed Gust Speed Precip Events Conditions
12:50 AM 63 °F 55 °F 69% 30.13 in 11 mi SSE 1.2 mph - -   Mostly Cloudy
12:50 AM 62.6 °F 55.4 °F 77% 30.12 in - SSE 1.2 mph - N/A   Clear
1:50 AM 60.8 °F 57.2 °F 88% 30.12 in 6.2 mi SSE 1.2 mph - N/A   Mostly Cloudy
2:50 AM 60.8 °F 55.4 °F 82% 30.09 in 6.2 mi SSE 3.5 mph - N/A   Mostly Cloudy
3:50 AM 60 °F 55 °F 79% 30.11 in 9 mi ESE 2.3 mph - -   Mostly Cloudy
3:50 AM 60.8 °F 55.4 °F 82% 30.09 in 6.2 mi ESE 2.3 mph - N/A   Mostly Cloudy
4:50 AM 60.8 °F 55.4 °F 82% 30.09 in 6.2 mi ESE 2.3 mph - N/A   Mostly Cloudy
5:50 AM 60.8 °F 55.4 °F 82% 30.09 in 6.2 mi NE 2.3 mph - N/A   Mostly Cloudy
6:50 AM 60 °F 55 °F 80% 30.10 in 9 mi NE 2.3 mph - -   Mostly Cloudy
6:50 AM 60.8 °F 55.4 °F 82% 30.09 in - NE 2.3 mph - N/A   Clear
7:50 AM 62.6 °F 55.4 °F 77% 30.09 in - SE 2.3 mph - N/A   Clear
8:50 AM 64.4 °F 57.2 °F 77% 30.09 in - SSE 3.5 mph - N/A   Clear
9:50 AM 66 °F 58 °F 67% 30.11 in 9 mi SSE 5.8 mph - -   Mostly Cloudy
9:50 AM 66.2 °F 57.2 °F 73% 30.09 in 6.2 mi SSE 5.8 mph - N/A   Mostly Cloudy
10:50 AM 68.0 °F 60.8 °F 78% 30.09 in 6.2 mi South 6.9 mph - N/A   Mostly Cloudy
11:50 AM 68.0 °F 59.0 °F 73% 30.09 in 6.2 mi South 4.6 mph - N/A   Mostly Cloudy
12:50 PM 72 °F 57 °F 49% 30.09 in 14 mi South 5.8 mph - -   Mostly Cloudy
12:50 PM 71.6 °F 57.2 °F 60% 30.09 in 6.2 mi South 5.8 mph - N/A   Mostly Cloudy
1:50 PM 68.0 °F 59.0 °F 73% 30.06 in 6.2 mi SW 4.6 mph - N/A   Mostly Cloudy
2:50 PM 69.8 °F 57.2 °F 64% 30.06 in 6.2 mi SSW 5.8 mph - N/A   Overcast
3:50 PM 71 °F 56 °F 49% 30.06 in 28 mi South 6.9 mph - -   Overcast
3:50 PM 71.6 °F 55.4 °F 57% 30.06 in 6.2 mi South 6.9 mph - N/A   Overcast
4:50 PM 71.6 °F 55.4 °F 57% 30.06 in 6.2 mi SSW 4.6 mph - N/A   Mostly Cloudy
5:50 PM 71.6 °F 55.4 °F 57% 30.04 in 6.2 mi SW 2.3 mph - N/A   Mostly Cloudy
6:50 PM 72 °F 55 °F 44% 30.04 in 25 mi SW 1.2 mph - -   Mostly Cloudy
6:50 PM 71.6 °F 55.4 °F 57% 30.04 in - SW 1.2 mph - N/A   Clear
7:50 PM 69.8 °F 57.2 °F 64% 30.04 in - NW 2.3 mph - N/A   Clear
8:50 PM 69.8 °F 57.2 °F 64% 30.04 in - NE 2.3 mph - N/A   Clear
9:50 PM 66 °F 56 °F 63% 30.05 in 12 mi SSE 4.6 mph - -   Partly Cloudy
9:50 PM 66.2 °F 57.2 °F 73% 30.04 in - SSE 4.6 mph - N/A   Clear
10:50 PM 66.2 °F 51.8 °F 60% 30.04 in - SSE 8.1 mph - N/A   Clear
11:50 PM 64.4 °F 51.8 °F 64% 30.04 in - SSW 4.6 mph - N/A   Clear